Tracking 19903 objects as of 16-Oct-2019
HD Live streaming from Space Station
objects crossing your sky now

NOAA 16 DEB

Track NOAA 16 DEB now!
10-day predictions


NORAD ID: 42405
Int'l Code: 2000-055SZ
Perigee: 798.6 km
Apogee: 850.5 km
Inclination: 99.0 °
Period: 101.2 minutes
Semi major axis: 7195 km
RCS: Unknown
Launch date: September 21, 2000
Source: United States (US)
Launch site: AIR FORCE WESTERN TEST RANGE (AFWTR)

Note: This is SATELLITE DEBRIS
aabbcc
Your satellite tracking list
Your tracking list is empty




NASA's NSSDC Master Catalog

Two Line Element Set (TLE):
1 42405U 00055SZ  19288.53460872 +.00001105 +00000-0 +51417-3 0  9996
2 42405 098.9968 040.3016 0036069 016.9274 343.3097 14.22353548185014
Source of the keplerian elements: AFSPC